Location: Marse
(42.1502°N, 110.9866°W)
Time: 12:10:12
(UTC+00:00)

Tiangong - Visible Passes

Search period start: 20 January 2022 00:00
Search period end: 30 January 2022 00:00
Orbit: 383 x 386 km, 41.5° (Epoch: 20 January)

Date Brightness Start Highest point End Pass type
(mag) Time Alt. Az. Time Alt. Az. Time Alt. Az.
26 Jan 3.7 02:26:14 10° SSW 02:27:01 14° S 02:27:01 14° S visible
27 Jan 3.5 01:27:56 10° SSE 01:28:59 11° SSE 01:30:00 10° SE visible
27 Jan 4.3 03:02:16 10° SW 03:02:32 12° SW 03:02:32 12° SW visible
28 Jan 2.3 02:02:48 10° SW 02:05:36 28° SSE 02:05:46 28° SSE visible
29 Jan 3.1 01:03:39 10° SSW 01:05:56 18° SSE 01:08:14 10° ESE visible
29 Jan 2.8 02:39:17 10° WSW 02:41:07 31° SW 02:41:07 31° SW visible
